Home   Weather   New Bedford   Past weeks

Flag for USA Past Weather in New Bedford, Massachusetts, USA — Yesterday and Last 2 Weeks

53 °F

Passing clouds.

Feels Like: 51 °F
Forecast: 43 / 59 °F
Wind: 6 mph from Southwest

Location: New Bedford Regional Airport

Current Time: Oct 24, 2016 at 3:03:51 AM

Latest Report: Oct 24, 2016 at 1:53 AM

Visibility: 10 mi

Pressure: 29.79 "Hg

Humidity: 59%

Dew Point: 39 °F

Location of New BedfordLocation

Past Weather in New Bedford — Graph


New Bedford Temperature Yesterday

Maximum temperature yesterday: 61 °F (at 3:53 PM)
Minimum temperature yesterday: 46 °F (at 5:53 AM)
Average temperature yesterday: 53 °F

High & Low Weather Summary for the Past Weeks

High81 °F (Oct 19, 12:53 PM)97% (Oct 9, 6:53 AM)30.47 "Hg (Oct 9, 6:53 AM)
Low34 °F (Oct 15, 2:53 AM)23% (Oct 23, 4:53 PM)29.18 "Hg (Oct 22, 12:53 PM)
Average57 °F76%30.00 "Hg
* Reported Oct 9 1:53 AM — Oct 24 1:53 AM, New Bedford, Weather by CustomWeather, © 2016

Note: Actual official high and low records may vary slightly from our data, if they occured in-between our weather recording intervals... More about our weather records


New Bedford Weather History for the Previous 24 Hours

Scroll right to see more
Time TempWeatherWind HumidityBarometerVisibility
1:53 AM
Mon, Oct 24
53 °FPassing clouds.6 mph59%29.79 "Hg10 mi
12:53 AM55 °FClear.7 mph53%29.80 "Hg10 mi
11:53 PM
Sun, Oct 23
55 °FClear.9 mph53%29.81 "Hg10 mi
10:53 PM53 °FClear.7 mph52%29.80 "Hg10 mi
9:53 PM54 °FClear.8 mph49%29.80 "Hg10 mi
8:53 PM54 °FClear.8 mph49%29.79 "Hg10 mi
5:53 PM58 °FRefreshingly cool.N/A25%29.72 "HgN/A
4:53 PM60 °FSunny.22 mph23%29.69 "Hg10 mi
3:53 PM61 °FSunny.15 mph24%29.66 "Hg10 mi
2:53 PM60 °FSunny.23 mph25%29.65 "Hg10 mi
1:53 PM58 °FSunny.22 mph32%29.64 "Hg10 mi
12:53 PM57 °FSunny.20 mph34%29.64 "Hg10 mi
11:53 AM55 °FSunny.21 mph42%29.64 "Hg10 mi
10:53 AM53 °FSunny.20 mph45%29.64 "Hg10 mi
9:53 AM50 °FSunny.23 mph48%29.64 "Hg10 mi
8:53 AM49 °FSunny.22 mph52%29.63 "Hg10 mi
7:53 AM47 °FSunny.20 mph56%29.62 "Hg10 mi
6:53 AM48 °FPassing clouds.20 mph61%29.60 "Hg10 mi
5:53 AM46 °FMostly cloudy.13 mph73%29.58 "Hg10 mi
4:53 AM49 °FMostly cloudy.22 mph61%29.56 "Hg10 mi
3:53 AM48 °FMostly cloudy.17 mph66%29.52 "Hg10 mi
Weather by CustomWeather, © 2016

See weather overviewHow to use our weather pages